Temperature
29 29 29 29 29 29 29 29 29 29 29 28 27 26 25 24 23 23 22 22 21 21 20 20 19 19 19 19 19 18 18 18 18 18 17 17 17 17 17 16 16 16 16 15
27 28 29 28 29 29 29 29 29 29 28 28 26 25 24 23 23 22 22 21 21 20 20 19 19 19 19 19 18 18 18 18 18 17 17 17 17 17 16 16 16 16 15 15
27 28 28 28 28 28 28 28 28 28 28 26 25 24 24 23 22 22 21 21 20 20 19 19 19 19 19 18 18 18 18 17 17 17 17 17 17 16 16 16 16 15 15 15
27 26 26 28 28 28 27 27 27 27 26 25 24 23 22 22 21 21 20 20 20 19 19 19 19 18 18 18 18 17 17 17 17 17 16 16 16 16 16 15 15 15 15 14
27 26 27 27 27 27 27 26 26 25 25 24 23 23 22 21 20 20 20 19 19 19 19 18 18 18 18 18 17 17 17 17 17 16 16 16 16 16 15 15 15 14 14 14
26 26 26 27 27 25 26 25 24 24 23 23 23 24 23 20 19 19 19 19 18 18 18 18 17 17 17 17 17 17 17 16 16 16 16 16 15 15 15 15 14 14 14 14
25 25 26 25 25 24 25 25 23 23 22 22 22 22 20 19 18 18 18 18 18 17 17 17 17 17 17 17 17 17 16 16 16 16 16 15 15 15 14 14 14 14 13 13
25 25 25 24 24 24 23 22 22 21 21 20 20 19 19 18 17 17 17 17 17 17 17 17 17 17 16 16 16 16 16 16 15 15 15 15 14 14 14 14 14 13 13 13
24 24 22 21 22 21 21 21 21 20 20 19 19 18 18 17 17 17 16 16 16 16 16 16 16 16 16 16 16 16 15 15 15 15 15 14 14 14 14 14 13 13 13 13
22 22 21 21 20 20 20 20 19 19 19 18 18 18 17 17 16 16 16 15 16 16 15 15 15 15 15 15 15 15 15 15 15 14 14 14 14 14 14 13 13 13 13 13
21 21 20 20 19 19 19 18 18 18 18 18 17 17 16 16 16 15 15 15 15 15 15 15 15 15 14 15 15 14 14 14 14 14 14 13 13 13 13 13 13 12 12 12
21 20 20 20 19 18 18 18 17 17 17 17 17 16 16 16 15 15 15 15 15 14 14 14 14 14 14 14 14 14 14 14 14 14 13 13 13 13 13 12 12 12 12 12
19 18 18 17 17 17 17 17 17 17 16 16 16 16 15 15 15 15 14 15 14 14 14 14 14 14 14 14 14 14 13 13 13 13 13 13 13 13 12 12 12 12 12 11
16 16 17 17 16 16 16 16 16 16 15 15 15 15 15 15 15 14 14 14 14 14 14 13 13 13 13 13 13 13 13 13 13 13 13 13 12 12 12 12 12 12 11 11
16 16 16 16 15 15 15 15 15 15 15 15 14 14 14 14 14 14 14 14 14 13 13 13 13 13 13 13 13 13 13 13 12 12 12 12 12 12 12 12 11 11 11 11
15 15 15 15 15 15 15 15 15 15 14 14 14 14 14 14 13 13 13 13 13 13 13 13 13 13 13 13 12 12 12 12 12 12 12 12 11 11 11 11 11 11 11 11
15 15 15 15 15 15 14 14 14 14 14 14 13 13 13 13 13 13 13 13 13 13 13 12 12 12 12 12 12 12 12 12 12 12 12 11 11 11 11 11 11 11 11 10
15 14 14 14 14 14 14 13 13 13 13 13 13 13 13 13 13 12 12 12 12 12 12 12 12 12 12 12 12 12 12 12 11 11 11 11 11 11 11 10 10 10 10 10
14 14 14 13 13 13 13 13 13 13 13 13 12 13 12 12 12 12 12 12 12 12 11 11 11 11 11 11 11 11 11 11 11 11 11 11 10 11 11 10 10 10 10 10
13 13 13 13 13 13 13 12 12 12 12 12 12 12 12 12 12 11 11 11 11 11 11 11 11 11 11 11 11 11 11 11 11 11 11 11 10 10 10 10 10 10 10 10
13 13 12 12 12 12 12 12 12 12 12 12 12 12 11 11 11 11 11 11 11 11 11 11 10 10 10 10 10 10 10 10 10 10 10 10 10 10 10 10 10 10 9 9
12 12 12 12 12 12 12 12 12 11 11 11 11 11 11 11 11 11 11 11 11 11 10 10 10 10 10 10 10 10 10 10 10 10 10 10 10 10 10 9 9 9 9 9
12 12 12 12 12 11 11 11 11 11 11 11 11 11 11 11 11 11 11 10 10 10 10 10 10 10 10 10 10 10 10 10 10 10 10 9 9 9 9 9 9 9 9 8
11 11 11 11 11 11 11 11 11 11 11 10 10 10 10 10 10 10 10 10 10 10 10 10 10 9 9 9 9 9 9 9 9 9 9 9 9 9 8 8 8 8 8 8
10 10 10 11 11 11 11 11 10 10 10 10 10 10 10 10 10 10 10 9 9 9 9 9 9 9 9 9 9 9 9 9 9 9 9 9 9 8 8 8 8 8 8 8
10 10 11 10 11 11 11 11 11 11 11 11 11 10 10 10 10 10 9 9 9 9 9 9 9 9 9 9 9 9 9 9 9 9 8 8 8 8 8 8 8 8 8 7
10 11 10 11 11 11 11 11 10 10 10 10 10 10 10 10 10 9 9 9 9 9 9 9 9 9 9 9 9 8 8 8 8 8 8 8 8 8 8 8 7 7 7 7
Wind_Speed
9 7 7 9 10 11 12 11 11 8 8 4 3 2 1 1 1 1 1 1 1 1 2 3 3 3 4 4 5 6 7 7 6 6 5 5 5 5 5 5 5 4 4 4
10 9 9 10 10 10 10 10 10 9 7 1 1 1 2 2 1 0 1 1 1 1 2 3 3 4 4 5 5 6 6 6 6 6 5 5 5 4 4 4 4 4 4 4
10 9 10 13 11 10 9 8 8 9 5 2 2 3 2 1 1 1 2 2 2 1 2 2 3 3 4 4 5 6 6 6 6 5 5 5 5 5 5 4 4 4 4 4
9 8 14 6 3 6 7 6 5 4 2 2 2 2 1 1 2 2 3 3 2 1 0 1 2 2 2 3 4 5 5 5 5 5 5 5 5 5 5 4 4 4 4 3
9 12 11 6 5 6 7 6 3 3 2 2 2 3 2 2 3 3 3 2 2 1 0 1 2 2 3 3 4 4 4 4 5 5 5 5 5 5 4 4 4 5 4 4
9 12 12 5 4 3 6 8 3 2 3 3 3 5 1 4 4 3 3 2 2 1 1 1 2 3 4 4 4 3 3 3 3 4 4 5 4 4 4 4 4 4 4 4
13 12 7 0 2 5 8 3 3 2 3 2 2 2 1 2 3 3 3 2 2 1 1 1 2 3 3 3 3 2 2 2 2 3 3 4 4 4 4 4 3 4 4 4
10 13 8 2 4 4 1 3 2 2 1 1 0 1 1 2 2 3 3 3 2 1 1 1 2 3 3 3 2 2 2 2 2 2 3 2 3 3 3 3 4 4 4 4
5 3 2 2 1 1 1 1 2 1 1 1 0 1 1 2 2 2 3 2 2 1 1 1 1 2 2 2 1 2 2 2 2 2 2 2 3 3 3 3 4 4 4 4
4 3 2 1 1 1 1 1 2 1 0 1 0 1 1 1 2 2 2 2 2 2 1 1 1 1 1 1 1 2 2 2 2 2 2 2 3 3 3 3 3 4 4 4
6 5 3 3 1 0 1 0 1 1 0 1 1 0 1 1 1 1 2 2 2 1 1 0 0 0 1 1 1 2 2 2 2 2 2 2 2 2 3 3 3 4 4 4
6 3 4 3 1 0 1 1 1 1 1 1 1 1 1 0 0 1 1 1 1 1 1 1 1 1 1 1 1 2 2 2 2 2 2 2 2 2 2 3 1 3 4 5
5 3 3 3 2 2 2 2 2 2 2 2 2 2 1 1 1 1 1 1 1 1 1 1 1 1 1 2 2 2 3 3 3 3 3 3 3 4 4 3 3 4 5 5
4 3 4 4 3 2 2 2 2 2 2 2 2 2 2 2 2 2 2 1 2 1 1 2 1 1 2 2 2 3 3 3 3 3 4 4 4 5 4 5 4 4 4 6
5 5 5 3 3 2 2 2 2 2 2 2 2 2 2 2 2 2 2 2 2 2 1 2 2 2 2 2 3 3 3 3 3 3 4 4 4 5 5 5 5 4 4 3
4 4 4 4 4 4 3 3 3 3 3 3 2 2 2 2 2 2 2 2 2 2 2 3 3 3 3 3 3 3 3 2 3 4 4 4 4 5 5 5 5 5 5 4
5 5 5 6 5 5 4 4 4 4 4 4 2 2 1 1 1 1 2 2 2 3 3 3 2 2 2 3 4 4 3 2 3 5 5 4 5 5 5 5 5 5 6 4
6 6 6 5 5 4 4 4 4 4 4 3 2 2 1 1 1 2 2 2 2 2 2 3 3 3 3 3 4 4 4 4 4 4 5 5 5 5 5 5 6 6 6 4
5 5 5 5 5 5 4 4 4 4 3 3 3 2 2 1 1 2 1 2 2 2 2 3 2 4 3 3 4 4 5 5 4 4 4 4 5 5 5 5 6 6 5 5
5 5 5 5 5 5 5 5 4 4 4 3 3 3 2 2 2 2 2 3 2 3 3 3 4 4 4 3 4 5 5 6 5 5 5 5 5 5 5 5 5 5 5 5
4 4 5 5 5 5 5 4 4 4 4 4 4 4 3 3 3 3 3 3 2 2 3 4 4 4 4 3 6 6 5 6 5 6 6 5 5 5 5 5 5 5 4 5
3 3 4 4 4 4 4 4 4 4 4 4 4 4 4 4 4 4 4 3 3 2 4 4 4 3 4 5 6 6 6 6 6 6 6 5 5 5 5 5 5 4 4 4
2 2 2 2 3 3 3 3 4 4 4 4 4 4 4 4 4 4 3 2 3 3 4 4 3 2 4 6 5 5 6 6 5 5 5 5 5 5 5 5 5 4 4 4
1 1 2 2 3 3 3 4 3 3 4 4 4 5 4 4 3 3 2 1 3 4 5 3 3 5 6 5 5 5 5 5 5 5 5 5 5 5 5 6 5 5 5 6
1 1 1 2 3 3 3 3 3 4 4 3 3 3 4 3 3 3 3 3 3 5 5 3 5 6 6 5 5 5 5 4 5 5 6 5 5 5 5 6 6 6 6 5
1 1 1 2 2 2 2 2 3 3 3 3 2 2 3 3 3 3 3 4 5 5 5 4 3 4 4 5 5 5 5 4 5 5 5 6 6 6 6 6 7 6 6 6
1 1 1 2 1 1 1 1 2 2 2 2 3 3 3 2 3 3 3 4 4 4 4 4 4 4 4 4 4 5 5 5 5 5 5 5 5 6 6 7 6 6 6 6
Wind_Direction
261 263 246 238 231 224 233 254 263 262 256 255 252 257 207 146 130 92 67 75 122 160 149 153 153 159 165 172 170 173 179 184 188 192 194 194 197 204 210 216 219 223 231 233
242 237 239 241 237 230 233 244 252 257 258 282 261 219 180 172 179 329 355 349 318 207 177 170 171 171 173 174 172 176 184 189 188 191 193 191 193 201 208 216 225 229 231 234
242 225 235 236 232 232 230 239 250 253 257 216 198 193 198 214 240 295 311 314 316 273 207 192 191 183 185 185 180 178 185 192 190 189 194 200 202 204 212 214 220 231 236 241
244 226 238 238 217 233 231 232 252 269 244 211 198 203 236 328 338 335 336 337 343 341 297 187 184 180 186 182 184 185 186 192 193 194 199 203 205 212 221 223 222 225 231 235
243 239 237 217 204 217 227 226 238 227 188 174 177 191 182 27 8 343 337 346 343 338 40 146 159 167 166 172 181 184 186 197 200 201 205 208 213 219 223 223 230 233 231 230
241 247 248 229 184 199 237 226 179 184 176 181 211 235 213 28 13 5 4 6 359 5 92 138 158 165 171 177 178 188 194 200 198 203 213 217 217 218 221 220 227 237 234 231
240 245 247 266 157 194 230 239 139 175 189 215 251 310 34 20 19 19 15 19 21 42 106 144 162 163 173 176 184 192 189 187 196 208 216 214 215 217 220 224 230 240 242 241
239 244 239 100 172 220 337 68 109 131 166 196 89 51 66 42 35 28 23 28 32 42 72 114 153 165 177 186 192 174 173 178 193 212 225 202 199 209 219 230 233 233 238 244
258 263 57 81 117 75 34 94 82 85 87 105 100 83 64 45 35 30 24 22 16 25 73 100 137 174 186 190 171 165 171 185 190 193 206 217 219 218 223 231 248 250 246 248
252 228 193 161 155 99 71 72 59 60 87 142 98 67 54 43 38 28 20 21 25 33 57 75 106 177 178 151 158 177 188 201 198 203 205 216 240 241 241 246 257 265 264 265
240 230 236 226 247 178 93 45 34 360 201 162 153 123 52 28 36 28 12 21 16 7 17 70 85 225 215 196 200 209 214 228 233 229 217 219 236 264 259 256 260 263 272 272
251 229 249 248 296 288 295 295 294 254 240 217 204 201 194 233 326 340 341 0 348 335 331 329 312 283 276 253 238 241 245 250 258 255 246 242 240 257 328 290 208 228 254 271
263 264 273 269 286 282 277 276 279 252 231 227 212 203 206 236 260 287 295 305 323 332 322 303 299 300 292 274 256 261 269 272 272 267 264 256 250 255 266 271 239 233 233 238
235 240 249 250 256 266 261 258 250 232 225 217 208 210 219 241 261 266 278 302 314 310 307 303 305 313 312 291 274 276 278 264 262 263 263 261 255 259 266 271 274 278 247 217
239 246 238 233 230 235 237 227 221 219 212 212 211 225 242 256 266 273 283 297 300 293 306 313 318 325 326 304 283 276 280 280 277 278 270 265 268 269 271 272 274 276 280 254
233 224 217 221 226 233 239 236 233 229 222 216 221 240 266 276 278 281 279 274 281 297 309 311 315 322 320 304 289 275 268 267 269 270 268 269 268 270 274 274 274 272 272 279
225 224 226 231 236 241 248 250 247 237 228 226 231 241 243 253 266 284 298 297 300 304 306 307 312 320 304 293 288 286 286 267 246 263 267 268 272 274 274 274 274 277 274 268
241 244 243 242 242 245 250 253 244 237 229 226 230 221 204 228 270 292 303 308 312 315 321 321 323 309 293 292 291 292 284 275 264 269 271 267 273 273 274 277 278 279 283 267
244 242 240 239 241 240 239 237 233 233 232 227 214 220 229 249 272 282 289 290 288 297 329 330 306 285 289 299 300 280 279 277 275 274 272 267 264 271 275 276 279 281 282 282
244 238 234 234 237 234 229 223 224 232 234 222 220 221 233 251 262 270 270 272 287 316 320 314 294 290 284 287 288 283 279 277 277 273 270 268 269 273 273 275 279 280 280 278
241 235 228 224 225 223 220 219 222 226 225 221 224 231 241 254 260 264 265 271 289 296 289 270 269 279 283 297 273 277 275 275 277 277 273 271 274 274 274 278 282 283 284 284
247 235 230 225 217 209 206 207 208 215 221 225 232 239 241 244 247 253 263 276 279 280 278 283 287 334 324 295 279 283 280 277 274 274 274 276 276 273 274 280 283 287 288 287
265 242 227 219 205 189 190 203 206 213 219 225 230 236 243 257 263 264 273 277 275 289 290 296 326 319 289 277 278 282 283 281 279 280 281 279 278 278 276 274 278 284 286 285
294 252 218 207 192 187 198 212 220 221 222 231 236 236 238 246 257 266 282 259 256 271 286 288 256 257 263 267 273 276 277 281 284 286 282 279 275 274 273 272 274 277 278 279
281 241 214 209 208 207 207 209 213 219 223 229 237 238 244 253 264 272 273 265 257 263 278 255 220 233 257 274 276 277 279 281 284 288 285 286 284 282 277 276 278 277 276 275
241 233 227 233 240 236 223 218 219 220 226 237 249 250 250 248 250 251 253 258 263 264 277 282 273 254 266 277 281 282 281 278 275 275 282 287 284 282 280 281 281 277 275 277
277 267 252 247 252 258 255 241 238 245 253 255 261 267 270 263 258 255 258 267 272 276 282 282 282 276 273 281 286 285 282 283 287 290 289 286 287 285 283 282 280 277 276 275
Height
1475 1472 1472 1474 1476 1476 1479 1477 1480 1479 1479 1480 1484 1487 1490 1493 1494 1495 1495 1496 1497 1497 1497 1498 1498 1499 1500 1501 1502 1503 1505 1506 1507 1508 1509 1510 1511 1512 1513 1513 1513 1513 1513 1513
1479 1474 1473 1475 1474 1475 1476 1476 1476 1477 1479 1480 1485 1488 1490 1492 1493 1494 1495 1496 1496 1496 1496 1496 1496 1497 1498 1499 1500 1501 1502 1504 1505 1506 1507 1508 1508 1509 1509 1510 1510 1510 1509 1509
1478 1474 1476 1480 1473 1473 1475 1475 1475 1477 1479 1481 1484 1487 1489 1491 1492 1493 1493 1494 1494 1495 1495 1495 1495 1495 1496 1497 1498 1498 1500 1501 1502 1503 1504 1505 1505 1506 1506 1507 1507 1506 1506 1506
1476 1482 1491 1474 1469 1470 1473 1475 1476 1477 1479 1482 1485 1488 1490 1491 1492 1492 1492 1492 1493 1493 1493 1493 1494 1494 1495 1495 1496 1497 1497 1499 1500 1500 1501 1502 1503 1503 1503 1504 1504 1503 1503 1503
1476 1479 1475 1473 1471 1472 1474 1477 1477 1478 1481 1484 1485 1487 1488 1490 1491 1491 1491 1491 1491 1492 1492 1492 1492 1492 1493 1493 1494 1495 1495 1496 1496 1498 1499 1499 1500 1500 1500 1501 1501 1501 1500 1499
1476 1481 1480 1470 1468 1473 1476 1478 1479 1480 1482 1483 1484 1482 1486 1489 1490 1490 1490 1490 1490 1490 1490 1490 1490 1491 1491 1492 1492 1492 1493 1494 1494 1495 1496 1497 1497 1497 1497 1497 1498 1498 1497 1497
1476 1476 1469 1469 1472 1475 1481 1478 1479 1481 1483 1484 1484 1485 1489 1489 1489 1490 1490 1489 1489 1489 1489 1489 1489 1489 1490 1490 1490 1491 1491 1492 1492 1493 1493 1494 1494 1494 1495 1495 1495 1495 1494 1494
1473 1476 1475 1472 1473 1474 1477 1479 1480 1482 1484 1485 1486 1487 1488 1489 1489 1489 1489 1488 1488 1488 1488 1488 1488 1488 1488 1488 1489 1489 1490 1490 1490 1491 1491 1492 1491 1491 1491 1492 1492 1491 1491 1491
1470 1474 1476 1476 1477 1479 1480 1480 1482 1483 1484 1485 1486 1487 1488 1488 1488 1488 1488 1488 1488 1487 1487 1487 1487 1487 1487 1487 1488 1488 1488 1488 1488 1488 1488 1489 1489 1488 1488 1489 1489 1489 1488 1488
1473 1473 1476 1478 1479 1480 1481 1481 1482 1483 1484 1485 1486 1486 1487 1487 1487 1487 1487 1487 1486 1486 1486 1485 1485 1485 1486 1486 1486 1486 1486 1486 1486 1486 1486 1486 1486 1486 1486 1486 1486 1486 1485 1485
1474 1475 1477 1478 1479 1480 1481 1481 1482 1483 1484 1485 1485 1486 1486 1486 1486 1486 1486 1486 1486 1485 1485 1485 1484 1484 1485 1485 1484 1484 1484 1484 1484 1484 1484 1484 1484 1484 1484 1483 1483 1483 1482 1481
1471 1474 1476 1478 1479 1480 1480 1481 1482 1482 1483 1484 1484 1485 1485 1485 1486 1486 1486 1485 1485 1484 1484 1484 1483 1483 1483 1483 1483 1482 1482 1482 1482 1482 1482 1482 1481 1481 1480 1481 1480 1479 1478 1478
1475 1476 1477 1478 1479 1479 1480 1480 1481 1481 1482 1482 1483 1484 1484 1484 1484 1484 1484 1483 1483 1482 1482 1482 1482 1481 1481 1481 1481 1480 1480 1480 1480 1480 1479 1479 1479 1478 1477 1477 1476 1475 1474 1473
1475 1476 1476 1477 1477 1478 1478 1479 1479 1480 1481 1482 1482 1483 1483 1483 1483 1482 1482 1482 1481 1481 1481 1481 1480 1479 1479 1479 1478 1478 1478 1477 1477 1477 1477 1477 1476 1475 1475 1474 1473 1471 1471 1470
1473 1474 1475 1475 1476 1476 1477 1477 1477 1478 1479 1480 1481 1481 1481 1481 1480 1480 1480 1480 1480 1479 1479 1479 1478 1478 1477 1477 1476 1476 1475 1475 1474 1474 1474 1474 1473 1472 1472 1471 1469 1468 1467 1466
1472 1472 1473 1473 1474 1474 1475 1475 1475 1476 1477 1477 1478 1479 1479 1479 1478 1478 1478 1478 1478 1477 1477 1476 1476 1476 1475 1475 1474 1474 1473 1472 1471 1471 1471 1470 1470 1469 1468 1467 1466 1465 1464 1463
1469 1469 1470 1471 1471 1472 1473 1473 1474 1474 1475 1475 1475 1475 1476 1476 1476 1476 1476 1476 1475 1475 1475 1474 1474 1473 1473 1472 1472 1472 1471 1470 1469 1468 1468 1467 1466 1466 1465 1464 1463 1462 1461 1459
1467 1467 1468 1468 1468 1469 1470 1470 1471 1472 1473 1473 1473 1473 1473 1473 1473 1473 1473 1473 1473 1473 1472 1472 1471 1471 1470 1470 1469 1469 1468 1467 1466 1465 1465 1464 1463 1462 1461 1460 1459 1458 1457 1455
1464 1464 1465 1465 1466 1466 1466 1467 1468 1469 1470 1470 1471 1471 1471 1471 1471 1471 1471 1471 1470 1470 1470 1469 1468 1468 1467 1467 1466 1465 1465 1464 1463 1462 1461 1460 1459 1458 1457 1457 1456 1454 1453 1452
1461 1461 1461 1462 1462 1463 1463 1464 1465 1466 1467 1467 1468 1468 1468 1469 1469 1468 1468 1468 1468 1467 1466 1466 1466 1465 1465 1464 1463 1462 1462 1461 1460 1459 1458 1457 1456 1455 1454 1453 1452 1451 1450 1448
1458 1458 1458 1458 1459 1459 1460 1461 1462 1463 1464 1465 1465 1465 1465 1466 1466 1466 1465 1465 1465 1464 1463 1463 1462 1462 1462 1460 1459 1459 1458 1457 1456 1455 1454 1453 1452 1452 1451 1449 1448 1447 1446 1445
1455 1454 1454 1455 1455 1456 1457 1458 1459 1460 1461 1462 1462 1463 1463 1463 1463 1463 1462 1462 1462 1461 1461 1460 1460 1459 1457 1456 1456 1455 1454 1454 1453 1452 1451 1450 1449 1448 1447 1446 1444 1443 1442 1441
1453 1452 1452 1452 1452 1453 1454 1455 1456 1457 1458 1458 1459 1459 1460 1460 1460 1460 1459 1459 1459 1458 1457 1457 1456 1454 1453 1453 1452 1452 1451 1450 1449 1448 1447 1446 1445 1444 1443 1442 1441 1440 1438 1437
1451 1451 1451 1451 1451 1451 1452 1453 1454 1455 1455 1456 1456 1456 1456 1456 1456 1456 1456 1456 1455 1454 1454 1453 1452 1451 1450 1449 1449 1448 1447 1447 1446 1444 1443 1442 1441 1440 1439 1438 1437 1436 1435 1434
1451 1450 1450 1450 1450 1450 1450 1451 1451 1452 1453 1453 1453 1453 1453 1453 1453 1453 1453 1453 1452 1451 1450 1449 1448 1447 1446 1446 1445 1445 1444 1443 1442 1441 1440 1439 1438 1437 1436 1434 1433 1432 1432 1431
1451 1450 1449 1448 1448 1448 1448 1448 1449 1449 1450 1450 1450 1450 1450 1450 1450 1450 1450 1449 1449 1448 1447 1446 1445 1444 1444 1443 1443 1442 1441 1440 1439 1438 1437 1436 1435 1433 1432 1431 1430 1429 1428 1427
1449 1449 1448 1447 1447 1447 1447 1447 1447 1447 1447 1447 1448 1448 1448 1448 1447 1447 1447 1446 1446 1445 1444 1443 1442 1442 1441 1440 1439 1439 1438 1437 1436 1435 1434 1433 1431 1430 1428 1427 1426 1425 1424 1422